Flint, MI

4:25 AM EST on February 25, 2017 (GMT -0500)
Bishop International

Weather History for KFNT - March, 2014

Change the Weather History Date:

Tuesday, March 25, 2014

  Actual Average Record
Temperature  
Mean Temperature 25 °F 38 °F  
Max Temperature 33 °F 48 °F 79 °F (1945)
Min Temperature 16 °F 28 °F -1 °F (1960)
Degree Days  
Heating Degree Days 40 27  
Month to date heating degree days 1028 801  
Since 1 July heating degree days 6549 5889  
Cooling Degree Days 0 0  
Month to date cooling degree days 0 0  
Year to date cooling degree days 0 0  
Moisture  
Dew Point 15 °F    
Average Humidity 63    
Maximum Humidity 81    
Minimum Humidity 45    
Precipitation  
Precipitation 0.01 in 0.07 in 1.06 in (1954)
Month to date precipitation 1.04 1.47  
Year to date precipitation 5.05 4.58  
Snow  
Snow 0.30 in 0.20 in 3.70 in (1979)
Month to date snowfall 9.4 5.7  
Since 1 July snowfall 82.6 44.3  
Snow Depth 1.00 in    
Sea Level Pressure  
Sea Level Pressure 29.97 in    
Wind  
Wind Speed 13 mph (WNW)    
Max Wind Speed 26 mph    
Max Gust Speed 34 mph    
Visibility 7 miles    
Events Snow    
T = Trace of Precipitation, MM = Missing Value Source: NWS Daily Summary

Daily Weather History Graph

Daily Weather History Graph

Search for Another Location

Airport or City:

Trip Planner

Search our weather history database for the weather conditions in past years. The results will help you decide how hot, cold, wet, or windy it might be!

Date:

Astronomy

Mar. 25, 2014 Rise Set
Actual Time 7:29 AM EDT 7:53 PM EDT
Civil Twilight 7:00 AM EDT 8:21 PM EDT
Nautical Twilight 6:27 AM EDT 8:55 PM EDT
Astronomical Twilight 5:53 AM EDT 9:29 PM EDT
Moon 3:57 AM EDT 2:15 PM EDT
Length of Visible Light 13h 20m
Length of Day
12h 23m
Waning Crescent, 32% of the Moon is Illuminated
Mar 25
Waning Crescent
Mar 30
New
Apr 7
First Quarter
Apr 15
Full
Apr 22
Last Quarter

Hourly Weather History & Observations

Time (EDT) Temp. Windchill Dew Point Humidity Pressure Visibility Wind Dir Wind Speed Gust Speed Precip Events Conditions
12:53 AM 21.0 °F 13.4 °F 10.9 °F 65% 30.07 in 10.0 mi SSW 5.8 mph - N/A   Clear
1:53 AM 21.0 °F 13.4 °F 12.0 °F 68% 30.04 in 10.0 mi South 5.8 mph - N/A   Partly Cloudy
2:53 AM 21.9 °F 11.7 °F 10.0 °F 60% 30.01 in 10.0 mi SSW 9.2 mph - N/A   Partly Cloudy
3:53 AM 24.1 °F 11.5 °F 8.1 °F 51% 29.97 in 10.0 mi SSW 15.0 mph 23.0 mph N/A   Overcast
4:53 AM 24.1 °F 15.2 °F 9.0 °F 53% 29.94 in 10.0 mi SSW 8.1 mph - N/A   Mostly Cloudy
5:53 AM 25.0 °F 15.5 °F 10.0 °F 53% 29.92 in 10.0 mi SW 9.2 mph - N/A   Overcast
6:53 AM 24.1 °F 13.1 °F 18.0 °F 77% 29.93 in 5.0 mi WSW 11.5 mph - 0.00 in Snow Light Snow
7:44 AM 25.0 °F 14.8 °F 19.0 °F 78% 29.89 in 2.5 mi WSW 10.4 mph - 0.00 in Snow Light Snow
7:45 AM 25.0 °F 14.8 °F 19.0 °F 78% 29.89 in 2.0 mi WSW 10.4 mph - 0.00 in Snow Light Snow
7:53 AM 25.0 °F 14.8 °F 19.9 °F 81% 29.93 in 1.2 mi WSW 10.4 mph - 0.00 in Snow Light Snow
8:03 AM 25.0 °F 14.8 °F 19.9 °F 81% 29.90 in 1.0 mi West 10.4 mph - 0.00 in Snow Light Snow
8:28 AM 26.1 °F 15.6 °F 21.0 °F 81% 29.90 in 2.0 mi West 11.5 mph - 0.00 in Snow Light Snow
8:37 AM 26.1 °F 14.5 °F 21.0 °F 81% 29.90 in 4.0 mi West 13.8 mph - 0.00 in   Haze
8:53 AM 26.1 °F 14.5 °F 19.9 °F 78% 29.94 in 6.0 mi West 13.8 mph - 0.00 in   Haze
9:01 AM 26.1 °F 15.6 °F 19.9 °F 78% 29.90 in 4.0 mi West 11.5 mph - N/A   Haze
9:09 AM 26.1 °F 13.6 °F 19.9 °F 78% 29.90 in 4.0 mi WNW 16.1 mph - N/A   Haze
9:53 AM 27.0 °F 15.6 °F 18.0 °F 69% 29.94 in 10.0 mi WNW 13.8 mph - N/A   Overcast
10:27 AM 27.0 °F 15.6 °F 18.0 °F 69% 29.91 in 10.0 mi WNW 13.8 mph - N/A   Mostly Cloudy
10:53 AM 28.0 °F 16.1 °F 16.0 °F 61% 29.95 in 10.0 mi NW 16.1 mph - N/A   Overcast
11:05 AM 28.9 °F 16.9 °F 17.1 °F 61% 29.92 in 8.0 mi West 17.3 mph - N/A   Overcast
11:30 AM 27.0 °F 15.6 °F 18.0 °F 69% 29.93 in 5.0 mi NNW 13.8 mph - 0.00 in Snow Light Snow
11:34 AM 27.0 °F 16.1 °F 18.0 °F 69% 29.93 in 2.5 mi NW 12.7 mph - 0.00 in Snow Light Snow
11:43 AM 28.0 °F 17.0 °F 19.0 °F 69% 29.93 in 2.5 mi NW 13.8 mph - 0.00 in Snow Light Snow
11:53 AM 28.9 °F 20.4 °F 19.9 °F 69% 29.96 in 4.0 mi WNW 9.2 mph - 0.00 in Snow Light Snow
12:43 PM 28.0 °F 14.6 °F 15.1 °F 58% 29.93 in 3.0 mi West 20.7 mph 28.8 mph 0.00 in Snow Light Snow
12:53 PM 30.0 °F 20.0 °F 16.0 °F 56% 29.97 in 7.0 mi West 12.7 mph - 0.00 in Snow Light Snow
1:53 PM 27.0 °F 14.7 °F 18.0 °F 69% 29.99 in 2.0 mi WNW 16.1 mph 34.5 mph 0.00 in Snow Light Snow
1:56 PM 28.0 °F 16.5 °F 19.0 °F 69% 29.94 in 3.0 mi WNW 15.0 mph - N/A Snow Light Snow
2:03 PM 30.0 °F 19.5 °F 16.0 °F 56% 29.94 in 3.0 mi NW 13.8 mph 21.9 mph 0.00 in Snow Light Snow
2:27 PM 30.0 °F 20.0 °F 17.1 °F 59% 29.94 in 1.8 mi WNW 12.7 mph 24.2 mph 0.00 in Snow Light Snow
2:40 PM 28.9 °F 15.1 °F 16.0 °F 58% 29.94 in 10.0 mi NW 23.0 mph 28.8 mph 0.00 in Snow Light Snow
2:53 PM 30.9 °F 19.1 °F 17.1 °F 57% 29.97 in 10.0 mi WNW 18.4 mph 28.8 mph 0.00 in   Mostly Cloudy
3:53 PM 30.9 °F 17.8 °F 12.9 °F 47% 29.96 in 10.0 mi WNW 23.0 mph 28.8 mph N/A   Scattered Clouds
4:53 PM 28.0 °F 14.6 °F 10.0 °F 47% 29.99 in 10.0 mi WNW 20.7 mph 25.3 mph N/A   Overcast
5:53 PM 27.0 °F 15.2 °F 10.9 °F 51% 30.01 in 10.0 mi WNW 15.0 mph 26.5 mph 0.00 in   Mostly Cloudy
6:53 PM 25.0 °F 13.6 °F 8.1 °F 49% 30.04 in 10.0 mi NW 12.7 mph - 0.00 in   Scattered Clouds
7:53 PM 24.1 °F 12.5 °F 8.1 °F 51% 30.07 in 10.0 mi NW 12.7 mph - N/A   Overcast
8:53 PM 21.9 °F 8.2 °F 8.1 °F 55% 30.11 in 10.0 mi NNW 16.1 mph - N/A   Overcast
9:53 PM 21.0 °F 7.1 °F 3.9 °F 48% 30.14 in 10.0 mi NNW 16.1 mph - N/A   Overcast
10:53 PM 19.0 °F 5.6 °F 1.9 °F 47% 30.17 in 10.0 mi NNW 13.8 mph - N/A   Partly Cloudy
11:53 PM 17.1 °F 5.8 °F 3.9 °F 56% 30.19 in 10.0 mi NW 9.2 mph - N/A   Clear